Location: Kawakawa
(35.3830°S, 174.0670°E)
Time: 03:23:23
(UTC+12:00)

Meteor 1-25 Rocket - Pass Details

Date: 15 August 2020
Orbit: 837 x 891 km, 81.2° (Epoch: 20 September)

Event Time Altitude Azimuth Distance (km) Brightness Sun altitude
Rises 19:57:53 0° 187° (S) 3,449 7.5 -26.1°
Reaches altitude 10° 20:00:21 10° 186° (S) 2,499 6.7 -26.6°
Enters shadow 20:04:46 55° 171° (S) 1,015 4.5 -27.5°
